• In Belgium
  • List of Countries
  • For 7 days
  • Water Temperature
  • Satellite Maps
  • Weather Map
  • Weather Widgets
  • user-avatar
    Login

    Hourly Weather Seli

    Today, 13 December, Wednesday

    Time Temperature Precipitation Wind Pressure Humidity
    00:00 +13°C° 0 mm 3 mps 755 mmHg 73%
    01:00 +13°C° 0 mm 3 mps 755 mmHg 72%
    02:00 +13°C° 0 mm 4 mps 755 mmHg 71%
    03:00 +13°C° 0 mm 4 mps 755 mmHg 71%
    04:00 +13°C° 0 mm 4 mps 754 mmHg 71%
    05:00 +13°C° 0 mm 4 mps 754 mmHg 71%
    06:00 +13°C° 0 mm 5 mps 754 mmHg 70%
    07:00 +13°C° 0 mm 5 mps 754 mmHg 68%
    08:00 +13°C° 0 mm 5 mps 754 mmHg 67%
    09:00 +15°C° 0 mm 5 mps 755 mmHg 64%
    10:00 +16°C° 0 mm 6 mps 755 mmHg 62%
    11:00 +19°C° 0 mm 6 mps 755 mmHg 59%
    12:00 +19°C° 0 mm 6 mps 755 mmHg 60%
    13:00 +19°C° 0 mm 6 mps 754 mmHg 60%
    14:00 +20°C° 0 mm 7 mps 754 mmHg 60%
    15:00 +18°C° 0 mm 7 mps 754 mmHg 65%
    16:00 +17°C° 0 mm 6 mps 753 mmHg 69%
    17:00 +16°C° 0 mm 6 mps 753 mmHg 73%
    18:00 +16°C° 0 mm 6 mps 753 mmHg 76%
    19:00 +15°C° 0 mm 6 mps 754 mmHg 78%
    20:00 +15°C° 0 mm 7 mps 754 mmHg 80%
    21:00 +14°C° 0 mm 6 mps 753 mmHg 81%
    22:00 +14°C° 0 mm 6 mps 753 mmHg 82%
    23:00 +14°C° 0 mm 6 mps 753 mmHg 83%

    Tomorrow, 14 December, Thursday

    Time Temperature Precipitation Wind Pressure Humidity
    00:00 +14°C° 0 mm 7 mps 753 mmHg 84%
    01:00 +14°C° 0 mm 7 mps 753 mmHg 84%
    02:00 +13°C° 0 mm 8 mps 753 mmHg 84%
    03:00 +13°C° 0 mm 8 mps 752 mmHg 83%
    04:00 +13°C° 0 mm 8 mps 752 mmHg 83%
    05:00 +13°C° 0 mm 8 mps 751 mmHg 83%
    06:00 +13°C° 0 mm 8 mps 752 mmHg 83%
    07:00 +13°C° 0 mm 8 mps 752 mmHg 82%
    08:00 +13°C° 0 mm 8 mps 752 mmHg 81%
    09:00 +15°C° 0 mm 7 mps 752 mmHg 75%
    10:00 +17°C° 0 mm 7 mps 752 mmHg 69%
    11:00 +18°C° 0 mm 7 mps 752 mmHg 64%
    12:00 +18°C° 0 mm 7 mps 752 mmHg 62%
    13:00 +20°C° 0 mm 7 mps 751 mmHg 61%
    14:00 +20°C° 0 mm 7 mps 751 mmHg 60%
    15:00 +18°C° 0 mm 8 mps 751 mmHg 64%
    16:00 +17°C° 0 mm 8 mps 750 mmHg 68%
    17:00 +16°C° 0 mm 8 mps 750 mmHg 72%
    18:00 +16°C° 0 mm 8 mps 750 mmHg 74%
    19:00 +16°C° 0 mm 8 mps 751 mmHg 76%
    20:00 +15°C° 0 mm 8 mps 751 mmHg 77%
    21:00 +15°C° 0 mm 8 mps 751 mmHg 78%
    22:00 +15°C° 0 mm 8 mps 751 mmHg 79%
    23:00 +13°C° 0 mm 8 mps 751 mmHg 80%

    Day after tomorrow, 15 December, Friday

    Time Temperature Precipitation Wind Pressure Humidity
    00:00 +13°C° 0 mm 8 mps 751 mmHg 80%
    01:00 +13°C° 0 mm 8 mps 751 mmHg 80%
    02:00 +12°C° 0 mm 8 mps 751 mmHg 80%
    03:00 +12°C° 0 mm 7 mps 751 mmHg 80%
    04:00 +11°C° 0 mm 7 mps 750 mmHg 80%
    05:00 +11°C° 0 mm 7 mps 750 mmHg 80%
    06:00 +11°C° 0 mm 6 mps 751 mmHg 79%
    07:00 +11°C° 0 mm 6 mps 751 mmHg 78%
    08:00 +13°C° 0 mm 6 mps 751 mmHg 78%
    09:00 +14°C° 0 mm 6 mps 751 mmHg 72%
    10:00 +16°C° 0 mm 6 mps 751 mmHg 67%
    11:00 +17°C° 0 mm 6 mps 752 mmHg 61%
    12:00 +17°C° 0 mm 6 mps 751 mmHg 61%
    13:00 +19°C° 0 mm 6 mps 751 mmHg 62%
    14:00 +19°C° 0 mm 6 mps 751 mmHg 62%
    15:00 +17°C° 0 mm 7 mps 751 mmHg 67%
    16:00 +17°C° 0 mm 7 mps 751 mmHg 71%
    17:00 +16°C° 0 mm 7 mps 750 mmHg 76%
    18:00 +15°C° 0 mm 7 mps 751 mmHg 78%
    19:00 +15°C° 0 mm 7 mps 751 mmHg 79%
    20:00 +14°C° 0 mm 6 mps 751 mmHg 81%
    21:00 +14°C° 0 mm 6 mps 751 mmHg 81%
    22:00 +14°C° 0 mm 6 mps 751 mmHg 81%
    23:00 +14°C° 0 mm 6 mps 752 mmHg 81%

    16 December, Saturday

    Time Temperature Precipitation Wind Pressure Humidity
    00:00 +14°C° 0 mm 6 mps 751 mmHg 81%
    01:00 +14°C° 0 mm 6 mps 751 mmHg 81%
    02:00 +14°C° 0 mm 6 mps 751 mmHg 81%
    03:00 +13°C° 0 mm 5 mps 751 mmHg 81%
    04:00 +13°C° 0 mm 5 mps 751 mmHg 82%
    05:00 +13°C° 0 mm 5 mps 751 mmHg 82%
    06:00 +13°C° 0 mm 5 mps 751 mmHg 82%
    07:00 +13°C° 0 mm 5 mps 751 mmHg 82%
    08:00 +13°C° 0 mm 5 mps 751 mmHg 82%
    09:00 +15°C° 0 mm 5 mps 751 mmHg 77%
    10:00 +16°C° 0 mm 5 mps 751 mmHg 73%
    11:00 +18°C° 0 mm 4 mps 751 mmHg 68%
    12:00 +18°C° 0 mm 4 mps 751 mmHg 68%
    13:00 +17°C° 0 mm 5 mps 751 mmHg 68%
    14:00 +19°C° 0 mm 5 mps 750 mmHg 67%
    15:00 +18°C° 0 mm 4 mps 750 mmHg 70%
    16:00 +17°C° 0 mm 4 mps 750 mmHg 74%
    17:00 +17°C° 0 mm 4 mps 750 mmHg 77%
    18:00 +15°C° 0 mm 4 mps 750 mmHg 79%
    19:00 +15°C° 0 mm 5 mps 750 mmHg 82%
    20:00 +15°C° 0 mm 5 mps 751 mmHg 85%
    21:00 +15°C° 0.2 mm 6 mps 750 mmHg 83%
    22:00 +15°C° 0.2 mm 6 mps 750 mmHg 82%
    23:00 +15°C° 0.2 mm 6 mps 750 mmHg 81%

    17 December, Sunday

    Time Temperature Precipitation Wind Pressure Humidity
    00:00 +15°C° 0.2 mm 7 mps 749 mmHg 82%
    01:00 +15°C° 0.2 mm 7 mps 749 mmHg 82%
    02:00 +15°C° 0.2 mm 7 mps 749 mmHg 83%
    03:00 +15°C° 0 mm 8 mps 748 mmHg 83%
    04:00 +15°C° 0 mm 8 mps 748 mmHg 83%
    05:00 +16°C° 0 mm 8 mps 748 mmHg 83%
    06:00 +16°C° 0 mm 8 mps 748 mmHg 82%
    07:00 +16°C° 0 mm 7 mps 748 mmHg 81%
    08:00 +16°C° 0 mm 7 mps 748 mmHg 80%
    09:00 +16°C° 0 mm 7 mps 748 mmHg 75%
    10:00 +17°C° 0 mm 7 mps 748 mmHg 71%
    11:00 +18°C° 0 mm 7 mps 748 mmHg 66%
    12:00 +18°C° 0 mm 7 mps 748 mmHg 65%
    13:00 +18°C° 0 mm 7 mps 748 mmHg 64%
    14:00 +18°C° 0 mm 7 mps 747 mmHg 63%
    15:00 +19°C° 0.1 mm 6 mps 747 mmHg 66%
    16:00 +17°C° 0.1 mm 6 mps 748 mmHg 68%
    17:00 +16°C° 0.1 mm 6 mps 748 mmHg 71%
    18:00 +16°C° 0.1 mm 5 mps 748 mmHg 74%
    19:00 +16°C° 0.1 mm 5 mps 749 mmHg 78%
    20:00 +15°C° 0.1 mm 5 mps 749 mmHg 81%
    21:00 +15°C° 0.1 mm 5 mps 749 mmHg 84%
    22:00 +14°C° 0.1 mm 5 mps 750 mmHg 87%
    23:00 +14°C° 0.1 mm 5 mps 750 mmHg 89%

    18 December, Monday

    Time Temperature Precipitation Wind Pressure Humidity
    00:00 +13°C° 0 mm 4 mps 750 mmHg 89%
    01:00 +13°C° 0 mm 4 mps 750 mmHg 89%
    02:00 +13°C° 0 mm 4 mps 750 mmHg 89%
    03:00 +12°C° 0 mm 4 mps 750 mmHg 88%
    04:00 +12°C° 0 mm 3 mps 750 mmHg 87%
    05:00 +12°C° 0 mm 3 mps 750 mmHg 86%
    06:00 +12°C° 0 mm 3 mps 751 mmHg 84%
    07:00 +12°C° 0 mm 3 mps 751 mmHg 82%
    08:00 +13°C° 0 mm 2 mps 751 mmHg 79%
    09:00 +15°C° 0 mm 2 mps 751 mmHg 70%
    10:00 +16°C° 0 mm 2 mps 751 mmHg 62%
    11:00 +18°C° 0 mm 2 mps 752 mmHg 53%
    12:00 +18°C° 0 mm 2 mps 751 mmHg 54%
    13:00 +19°C° 0 mm 2 mps 751 mmHg 54%
    14:00 +19°C° 0 mm 3 mps 751 mmHg 55%
    15:00 +18°C° 0.1 mm 2 mps 751 mmHg 59%
    16:00 +18°C° 0.1 mm 2 mps 751 mmHg 63%
    17:00 +17°C° 0.1 mm 2 mps 751 mmHg 67%
    18:00 +16°C° 0.1 mm 2 mps 751 mmHg 70%
    19:00 +16°C° 0.1 mm 2 mps 751 mmHg 73%
    20:00 +15°C° 0.1 mm 1 mps 751 mmHg 76%
    21:00 +15°C° 0.2 mm 1 mps 752 mmHg 76%
    22:00 +15°C° 0.2 mm 1 mps 752 mmHg 75%
    23:00 +15°C° 0.2 mm 2 mps 752 mmHg 75%
    Show more